Back to catalog

STARLINK-35228

AliveCommunicationsVLEO
NORAD 65517·PAYLOAD·🇺🇸 United States

Launched Sep 5, 2025 from Cape Canaveral Space Force Station

Loading…

Next Passes (next 24 hours)

TLE

FreshSource: CelesTrak SupGP

Epoch: Sep 14, 2026, 22:33 UTC

1 65517C 25198AB  26257.94006944 -.00020671  00000+0 -61081-3 0  2570
2 65517  53.1582 107.5190 0001324  82.3209  59.2966 15.34396172    16

Track STARLINK-35228 in real time with AllMySat

Download on the App Store